Regional Weather Roundup
Issued by NWS Wakefield, VA

Home | Current Version | Previous Version | Text Only | Print | Product List | Glossary Off
Versions: 1 2 3 4 5 6 7 8 9 10 11 12 13 14 15 16 17 18 19 20 21 22 23 24 25 26 27 28 29 30 31 32 33 34 35 36 37 38 39 40 41 42 43 44 45 46 47 48 49 50

000
ASUS41 KAKQ 022115
RWRAKQ

REGIONAL WEATHER ROUNDUP
NATIONAL WEATHER SERVICE WAKEFIELD VA
500 PM EDT MON MAY 02 2016

Note: "fair" indicates few or no clouds below 12,000 feet with no
significant weather and/or obstructions to visibility. * = Denotes
station may not report precipitation (e.g., rain,snow,etc.),
thunder or fog.

VAZ042-051-052>054-056-022200-
NORTHERN VIRGINIA

CITY           SKY/WX    TMP DP  RH WIND       PRES   REMARKS
WASH NATIONAL  NOT AVBL
DULLES         FAIR      79  65  62 SE9       29.84F
FORT BELVOIR   FAIR      77  66  67 SE8       29.84F
QUANTICO       FAIR      77  67  71 S3        29.83F
FREDERICKSBRG* FAIR      85  66  52 SW8       29.82F
STAFFORD*      FAIR      82  62  50 SE7       29.87F
WARRENTON      FAIR      84  58  41 S5        29.81F
CULPEPER*      FAIR      85  64  49 S9        29.82F
MANASSAS*      MOSUNNY   81  66  61 SE14      29.83F
LEESBURG*      FAIR      81  68  65 S10G16    29.85F
WINCHESTER     FAIR      84  52  32 W7        29.82F
FRONT ROYAL*   CLOUDY    82  54  36 W3G23     29.80F
LURAY*         MOCLDY    82  57  42 CALM      29.82F
$$

VAZ048-049-060>072-079>083-022200-
CENTRAL AND SOUTH CENTRAL VIRGINIA

CITY           SKY/WX    TMP DP  RH WIND       PRES   REMARKS
RICHMOND       PTSUNNY   82  63  52 S9        29.84F
CHESTERFIELD*  FAIR      82  59  44 S6        29.86F
PETERSBURG*    FAIR      85  64  48 S3        29.85F
HANOVER        PTSUNNY   83  59  44 SW6       29.85F
TAPPAHANNOCK*  FAIR      84  64  49 SW6       29.86F
QUINTON*       FAIR      84  63  49 SE6       29.85F
CHARLOTTSVILLE FAIR      85  57  38 S9        29.81F
GORDONSVILLE*  FAIR      85  63  47 SW7       29.81F
ORANGE*        FAIR      86  59  39 NE12G20   29.83F
LOUISA*        FAIR      88  64  45 S9        29.83F
BUMPASS*       MOCLDY    84  64  50 S3        29.83F
FARMVILLE*     FAIR      83  63  51 S13       29.83F
CREWE*         FAIR      82  65  55 S3        29.85F
FORT PICKETT*  NOT AVBL
CHASE CITY*    FAIR      85  60  44 S3        29.86F
CLARKSVILLE*   FAIR      82  66  57 S8        29.87F
SOUTH HILL*    FAIR      82  65  56 S13G18    29.92F
LAWRENCEVILLE* MOCLDY    84  66  55 S10       29.87F
EMPORIA*       FAIR      82  66  57 S10G16    29.89F
$$

VAZ088>098-022200-
SOUTHEAST VIRGINIA

CITY           SKY/WX    TMP DP  RH WIND       PRES   REMARKS
NORFOLK        FAIR      84  65  52 S10       29.87F
VIRGINIA BEACH PTSUNNY   86  67  52 VRB3      29.87F
NORFOLK NAVAL  PTSUNNY   85  66  53 SW9       29.88F
WEST POINT*    FAIR      83  63  49 S5        29.86F
SALUDA*        FAIR      84  67  56 SW7       29.86F
NEWPORT NEWS   FAIR      84  67  56 SW9       29.87F
LANGLEY AFB    MOSUNNY   84  66  54 S15       29.87S
FORT EUSTIS    FAIR      84  67  56 S9        29.85F
WILLIAMSBURG*  FAIR      88  66  48 S7        29.87F
HR EXEC AP*    FAIR      84  66  54 SW12      29.90S
FRANKLIN*      FAIR      84  65  53 S10G17    29.88F
US460-WAKEFLD  FAIR      84  65  52 S7        29.86F
$$

VAZ020-022-025-037-045-022200-
WEST CENTRAL AND SOUTHWEST VIRGINIA

CITY           SKY/WX    TMP DP  RH WIND       PRES   REMARKS
STAUNTON*      FAIR      82  55  38 SW5       29.85F
WAYNESBORO*    FAIR      81  53  37 SW9       29.86F
HOT SPRINGS VA PTSUNNY   69  51  51 W8        29.96F HAZE
LYNCHBURG      FAIR      73  63  70 S9        29.87F
DANVILLE       FAIR      81  64  56 S6        29.85F
SOUTH BOSTON*  MOCLDY    83  62  49 S8        29.86F
MARTINSVILLE   FAIR      76  61  59 SW5       29.90S
ROANOKE        CLOUDY    75  64  68 E13       29.87F
BLACKSBURG     LGT RAIN  71  61  70 SW9       29.94F
DUBLIN*        CLOUDY    72  63  73 SW10      29.93S THUNDER
MARION*        PTSUNNY   74  57  55 SW8G20    29.97S
HILLSVILLE*    FAIR      71  63  75 S5        29.95F
RICHLANDS*     MOCLDY    72  65  78 SW12G24   29.96S
WISE*          CLOUDY    61  50  67 NW10G24   30.03R
ABINGDON*      PTSUNNY   76  59  54 NW16      29.94F
$$

MDZ021>025-VAZ099-100-022200-
SOUTHERN MARYLAND AND THE DELMARVA PENINSULA

CITY           SKY/WX    TMP DP  RH WIND       PRES   REMARKS
PATUXENT RIVER MOSUNNY   68  63  84 SE10      29.87S
BAY BRIDGE APT NOT AVBL
LEONARDTOWN    SUNNY     79  64  61 SW6       29.88F
DOVER          SUNNY     64  63  96 E7        29.88S
GEORGETOWN     MOSUNNY   77  65  66 SW7       29.88F
EASTON         SUNNY    N/A N/A N/A SW7       29.91F
CAMBRIDGE      SUNNY     73  64  73 S5        29.88R
SALISBURY      MOSUNNY   79  67  66 SW8       29.88S
OCEAN CITY     SUNNY     70  64  81 S8        29.89S
WALLOPS ISLAND FAIR      74  65  73 S7        29.89S
ACCOMACK*      FAIR      81  63  54 SW8       29.89S
$$

NCZ012>017-030>032-022200-
NORTH CENTRAL AND EASTERN NORTH CAROLINA

CITY           SKY/WX    TMP DP  RH WIND       PRES   REMARKS
ROANOKE RAPIDS FAIR      81  68  65 S7        29.90S
RALEIGH        TSTM      72  63  73 SW24G35   29.94R FOG
ELIZABETH CITY MOSUNNY   83  68  60 S12       29.90F
AHOSKIE*       SUNNY     82  68  62 S8        29.90F
EDENTON*       MOSUNNY   83  69  62 SW8       29.91F
CURRITUCK*     MOSUNNY   83  68  59 SW9       29.91F
KILL DEVIL HLS MOSUNNY   84  69  59 S5        29.91F
MANTEO         NOT AVBL
CAPE HATTERAS  MOSUNNY   74  68  81 SW13G22   29.97F
TARBORO*       FAIR      86  67  53 SW9       29.91F
GOLDSBORO      NOT AVBL
WASHINGTON     MOSUNNY   83  69  61 S8        29.91F
GREENVILLE     PTSUNNY   82  70  65 SW10      29.93F
NEW BERN       PTSUNNY   80  66  62 S17G23    29.94F
WILMINGTON     SUNNY     82  64  54 S17G26    29.95F
$$

VAZ048-022200-
ELSEWHERE

CITY           SKY/WX    TMP DP  RH WIND       PRES   REMARKS
HARRISBURG PA  PTSUNNY   67  58  72 NE8       29.85F
BALTIMORE      MOSUNNY   69  60  73 NE9       29.86F
ANNAPOLIS      SUNNY     64  61  90 SE9       29.86F
ANDREWS AFB    FAIR      77  65  65 S9        29.84F
PHILADELPHIA   PTSUNNY   63  54  72 S6        29.92R
HENDERSON NC   LGT RAIN  80  66  63 S6        29.89F
GREENSBORO     TSTM      70  64  83 SW13G36   29.90S
ROCKY MOUNT    MOSUNNY   81  67  62 S9        29.89F
$$

VAZ100-022200-
MARINE

STATION/POSITION TIME  TEMP    WIND        PRES    WAVE   SWELL
                       AIR SEA DIR/SP/G            HT/PER HT/PER
                 (UTC) (F)     (DEG/KT/KT) (MB)    (FT/S) (FT/S)
BRANDYWINE LGT   2000   56      70/  5/  6 1012.5F
CAPE MAY NJ      2000   65 59  350/  1/  3 1012.3F
LEWES DE         2000   57 56   90/  7/  7 1012.3F
15NM E FENWICK I 2050   56 53              1012.1R   3/11
OCEAN-CITY-INLET 2000   59 56  200/  9/ 12 1011.3F
WACHAPREAGUE VA  2000   73 63  190/  9/ 11 1011.5F
THOMAS POINT MD  2100   65 58  140/  8/  8 1012.5F
GOOSES REEF MD   2100   64 60  160/  8/ 10 1012.3F   1
COVE POINT MD    2000   61     180/ 11/ 12 1012.2F
SOLOMONS ISLAND  2000   64 61   80/  9/ 11   N/A
BISHOPS HEAD MD  2000   63 63  150/  9/  9 1011.2F
PINEY POINT MD   2000          150/  8/  8   N/A
POTOMAC MD       2100   63 62   90/  8/  8 1010.6F   0
CAMBRIDGE MD     2000   67 60   10/  6/  6 1010.9F
LEWISETTA VA     2000   62 61   90/  6/  7 1011.2F
RAPPAHANNOCK LGT 2000          170/ 13/ 13 1012.4F
STINGRAY PT      2000   68 63  160/  6/  6 1012.1F   1
YORK RVR RNG VA  2000   75     200/  5/  8 1011.1F
YORKTOWN VA      2000   83 62  220/  8/ 14 1011.2F
JAMESTOWN VA     2100   81 68  190/  6/ 10   N/A
DOMINION TERM VA 2000   78     210/ 11/ 13 1011.8F
KIPTOPEKE VA     2000      64  200/  5/  5   N/A
CHES BAY BRIDGE  2000   69 60   80/ 10/ 12 1011.7F
CAPE HENRY VA    2000   74     120/ 10/ 13   N/A
CHESAPEAKE LGHT  2000   71      90/  7/  8 1013.3F
WILLOUBY STN VA  2000   78     230/  8/  9 1012.9F
CAPE HENRY BUOY  2012      66                N/A     3/11   2/11
CAPE CHARLES BUO 2026      63                N/A     3/11   3/11
OFFSHORE WE BUOY 2021      59                N/A     4/11   3/11
64NM E OF VA BCH 2050   60 54  210/ 10/ 12 1013.0F   4/10   3/10
DUCK PIER NC     2000   79 58  220/ 13/ 16 1012.8F
44100 DUCK FRF   2024      63                N/A     4/11   2/11
44056 DUCK FRF   2011      61                N/A     3/12   2/12
OREGON INLET NC  2000   73 70  190/ 20/ 23 1013.8F
HATTERAS NC      2000   75 69  210/ 12/ 17 1014.8F
DIAMOND SHLS NC  2050   75 74  210/ 17/ 19 1014.8F   4/11   3/11
CAPE LOOKOUT NC  2100   74     200/ 13/ 16 1014.6F
$$



USA.gov is the U.S. government's official web portal to all federal, state and local government web resources and services.